Pratt, KS

7:15 AM CST on December 18, 2017 (GMT -0600)
Pratt Industrial

Weather History for KPTT - August, 2013

Change the Weather History Date:

Sunday, August 25, 2013

  Actual Average (KP28) Record (KP28)
Temperature  
Mean Temperature 82 °F -  
Max Temperature 93 °F 89 °F 110 °F (1936)
Min Temperature 71 °F 66 °F 49 °F (1985)
Cooling Degree Days 17    
Growing Degree Days 32 (Base 50)    
Moisture  
Dew Point 64 °F    
Average Humidity 58    
Maximum Humidity 88    
Minimum Humidity 31    
Precipitation  
Precipitation 0.00 in - - ()
Sea Level Pressure  
Sea Level Pressure 30.16 in    
Wind  
Wind Speed 13 mph (South)    
Max Wind Speed 18 mph    
Max Gust Speed 23 mph    
Visibility 10 miles    
Events      
Averages and records for this station are not official NWS values.
T = Trace of Precipitation, MM = Missing Value Source: NWS Daily Summary

Daily Weather History Graph

Daily Weather History Graph

Search for Another Location

Airport or City:

Trip Planner

Search our weather history database for the weather conditions in past years. The results will help you decide how hot, cold, wet, or windy it might be!

Date:

Astronomy

Aug. 25, 2013 Rise Set
Actual Time 6:59 AM CDT 8:13 PM CDT
Civil Twilight 6:32 AM CDT 8:41 PM CDT
Nautical Twilight 5:59 AM CDT 9:13 PM CDT
Astronomical Twilight 5:25 AM CDT 9:47 PM CDT
Moon 10:53 PM CDT (8/25) 11:56 AM CDT (8/25)
Length of Visible Light 14h 08m
Length of Day
13h 14m
Waning Gibbous, 75% of the Moon is Illuminated
Aug 25
Waning Gibbous
Aug 28
Last Quarter
Sep 5
New
Sep 12
First Quarter
Sep 19
Full

Hourly Weather History & Observations

Time (CDT) Temp. Heat Index Dew Point Humidity Pressure Visibility Wind Dir Wind Speed Gust Speed Precip Events Conditions
12:15 AM 78.8 °F - 66.2 °F 65% 30.14 in 10.0 mi SSE 15.0 mph 20.7 mph N/A   Clear
12:35 AM 78.8 °F - 66.2 °F 65% 30.14 in 10.0 mi SSE 13.8 mph 18.4 mph N/A   Clear
12:55 AM 77.0 °F - 66.2 °F 69% 30.14 in 10.0 mi South 12.7 mph 20.7 mph N/A   Clear
1:15 AM 77.0 °F - 68.0 °F 74% 30.14 in 10.0 mi South 12.7 mph - N/A   Clear
1:35 AM 77.0 °F - 68.0 °F 74% 30.14 in 10.0 mi South 11.5 mph 19.6 mph N/A   Clear
1:55 AM 77.0 °F - 68.0 °F 74% 30.15 in 10.0 mi South 13.8 mph - N/A   Clear
2:15 AM 75.2 °F - 68.0 °F 78% 30.15 in 10.0 mi South 12.7 mph 17.3 mph N/A   Clear
2:35 AM 75.2 °F - 68.0 °F 78% 30.16 in 10.0 mi South 12.7 mph - N/A   Clear
2:55 AM 73.4 °F - 68.0 °F 83% 30.16 in 10.0 mi South 11.5 mph - N/A   Clear
3:15 AM 73.4 °F - 68.0 °F 83% 30.16 in 10.0 mi South 12.7 mph - N/A   Clear
3:35 AM 73.4 °F - 68.0 °F 83% 30.16 in 10.0 mi South 12.7 mph 18.4 mph N/A   Clear
3:55 AM 73.4 °F - 68.0 °F 83% 30.16 in 10.0 mi SSE 10.4 mph - N/A   Clear
4:15 AM 73.4 °F - 68.0 °F 83% 30.16 in 10.0 mi South 11.5 mph - N/A   Clear
4:35 AM 73.4 °F - 68.0 °F 83% 30.17 in 10.0 mi South 11.5 mph - N/A   Clear
4:55 AM 73.4 °F - 68.0 °F 83% 30.17 in 10.0 mi South 11.5 mph - N/A   Clear
5:15 AM 73.4 °F - 68.0 °F 83% 30.17 in 10.0 mi South 10.4 mph - N/A   Clear
5:35 AM 71.6 °F - 68.0 °F 88% 30.17 in 10.0 mi South 9.2 mph - N/A   Clear
5:55 AM 71.6 °F - 68.0 °F 88% 30.17 in 10.0 mi South 9.2 mph - N/A   Clear
6:15 AM 71.6 °F - 66.2 °F 83% 30.17 in 10.0 mi South 10.4 mph - N/A   Clear
6:35 AM 71.6 °F - 66.2 °F 83% 30.18 in 10.0 mi South 10.4 mph - N/A   Clear
6:55 AM 71.6 °F - 66.2 °F 83% 30.18 in 10.0 mi South 9.2 mph - N/A   Clear
7:15 AM 71.6 °F - 66.2 °F 83% 30.18 in 10.0 mi South 8.1 mph - N/A   Clear
7:35 AM 71.6 °F - 66.2 °F 83% 30.19 in 10.0 mi South 9.2 mph - N/A   Clear
7:55 AM 71.6 °F - 66.2 °F 83% 30.19 in 10.0 mi South 9.2 mph - N/A   Clear
8:15 AM 73.4 °F - 66.2 °F 78% 30.19 in 10.0 mi South 10.4 mph - N/A   Clear
8:35 AM 75.2 °F - 66.2 °F 73% 30.20 in 10.0 mi South 10.4 mph - N/A   Clear
8:55 AM 77.0 °F - 66.2 °F 69% 30.19 in 10.0 mi South 11.5 mph - N/A   Clear
9:15 AM 77.0 °F - 66.2 °F 69% 30.19 in 10.0 mi SSW 13.8 mph - N/A   Clear
9:35 AM 78.8 °F - 66.2 °F 65% 30.19 in 10.0 mi SSW 16.1 mph 19.6 mph N/A   Clear
9:55 AM 80.6 °F 82.7 °F 66.2 °F 61% 30.19 in 10.0 mi SSW 16.1 mph - N/A   Clear
10:15 AM 82.4 °F 83.9 °F 64.4 °F 54% 30.19 in 10.0 mi SSW 17.3 mph 20.7 mph N/A   Clear
10:35 AM 82.4 °F 84.6 °F 66.2 °F 58% 30.19 in 10.0 mi SSW 17.3 mph - N/A   Clear
10:55 AM 84.2 °F 86.6 °F 66.2 °F 55% 30.20 in 10.0 mi South 17.3 mph - N/A   Clear
11:15 AM 86.0 °F 87.3 °F 64.4 °F 48% 30.19 in 10.0 mi SW 16.1 mph - N/A   Clear
11:35 AM 86.0 °F 87.3 °F 64.4 °F 48% 30.19 in 10.0 mi SW 16.1 mph - N/A   Clear
11:55 AM 87.8 °F 89.4 °F 64.4 °F 46% 30.19 in 10.0 mi SSW 12.7 mph 19.6 mph N/A   Clear
12:15 PM 87.8 °F 89.4 °F 64.4 °F 46% 30.19 in 10.0 mi SSW 12.7 mph 18.4 mph N/A   Clear
12:35 PM 87.8 °F 89.4 °F 64.4 °F 46% 30.18 in 10.0 mi SSW 15.0 mph - N/A   Clear
12:55 PM 89.6 °F 91.1 °F 64.4 °F 43% 30.18 in 10.0 mi South 13.8 mph 19.6 mph N/A   Clear
1:15 PM 89.6 °F 91.1 °F 64.4 °F 43% 30.17 in 10.0 mi South 13.8 mph 18.4 mph N/A   Clear
1:35 PM 91.4 °F 93.2 °F 64.4 °F 41% 30.17 in 10.0 mi SW 12.7 mph - N/A   Clear
1:55 PM 91.4 °F 92.1 °F 62.6 °F 38% 30.16 in 10.0 mi South 13.8 mph 20.7 mph N/A   Clear
2:15 PM 91.4 °F 91.4 °F 60.8 °F 36% 30.16 in 10.0 mi SSW 12.7 mph 19.6 mph N/A   Clear
2:35 PM 91.4 °F 91.4 °F 60.8 °F 36% 30.16 in 10.0 mi South 16.1 mph 21.9 mph N/A   Clear
2:55 PM 91.4 °F 91.4 °F 60.8 °F 36% 30.16 in 10.0 mi SSW 16.1 mph - N/A   Clear
3:15 PM 91.4 °F 91.4 °F 60.8 °F 36% 30.15 in 10.0 mi South 12.7 mph 21.9 mph N/A   Clear
3:35 PM 91.4 °F 91.4 °F 60.8 °F 36% 30.14 in 10.0 mi South 16.1 mph - N/A   Clear
3:55 PM 91.4 °F 90.7 °F 59.0 °F 34% 30.14 in 10.0 mi South 16.1 mph 19.6 mph N/A   Clear
4:15 PM 91.4 °F 90.7 °F 59.0 °F 34% 30.13 in 10.0 mi South 13.8 mph 19.6 mph N/A   Clear
4:35 PM 93.2 °F 93.3 °F 60.8 °F 34% 30.13 in 10.0 mi South 15.0 mph 23.0 mph N/A   Clear
4:55 PM 91.4 °F 90.7 °F 59.0 °F 34% 30.13 in 10.0 mi SSE 11.5 mph - N/A   Clear
5:15 PM 93.2 °F 92.6 °F 59.0 °F 32% 30.13 in 10.0 mi South 16.1 mph 21.9 mph N/A   Clear
5:35 PM 91.4 °F 89.9 °F 57.2 °F 31% 30.12 in 10.0 mi South 13.8 mph 19.6 mph N/A   Clear
5:55 PM 91.4 °F 90.7 °F 59.0 °F 34% 30.12 in 10.0 mi South 13.8 mph 17.3 mph N/A   Clear
6:15 PM 91.4 °F 90.7 °F 59.0 °F 34% 30.12 in 10.0 mi South 11.5 mph 18.4 mph N/A   Clear
6:35 PM 89.6 °F 88.9 °F 59.0 °F 36% 30.12 in 10.0 mi South 15.0 mph - N/A   Clear
6:55 PM 89.6 °F 88.9 °F 59.0 °F 36% 30.12 in 10.0 mi SSW 18.4 mph - N/A   Clear
7:15 PM 89.6 °F 88.9 °F 59.0 °F 36% 30.12 in 10.0 mi South 15.0 mph - N/A   Clear
7:35 PM 87.8 °F 86.5 °F 57.2 °F 35% 30.12 in 10.0 mi SSE 8.1 mph - N/A   Clear
7:55 PM 87.8 °F 87.1 °F 59.0 °F 38% 30.12 in 10.0 mi SSE 10.4 mph - N/A   Clear
8:15 PM 86.0 °F 84.9 °F 57.2 °F 37% 30.12 in 10.0 mi SSE 9.2 mph - N/A   Clear
8:35 PM 84.2 °F 83.8 °F 59.0 °F 42% 30.13 in 10.0 mi SSE 8.1 mph - N/A   Clear
8:55 PM 82.4 °F 82.5 °F 59.0 °F 45% 30.13 in 10.0 mi SSE 8.1 mph - N/A   Clear
9:15 PM 80.6 °F 81.5 °F 60.8 °F 51% 30.14 in 10.0 mi SSE 9.2 mph - N/A   Clear
9:35 PM 80.6 °F 81.8 °F 62.6 °F 54% 30.15 in 10.0 mi SSE 10.4 mph - N/A   Clear
9:55 PM 80.6 °F 81.8 °F 62.6 °F 54% 30.16 in 10.0 mi SSE 11.5 mph - N/A   Clear
10:15 PM 80.6 °F 81.8 °F 62.6 °F 54% 30.16 in 10.0 mi SSE 13.8 mph 19.6 mph N/A   Clear
10:35 PM 80.6 °F 81.8 °F 62.6 °F 54% 30.17 in 10.0 mi South 12.7 mph - N/A   Clear
10:55 PM 78.8 °F - 62.6 °F 57% 30.18 in 10.0 mi SSE 12.7 mph 17.3 mph N/A   Clear
11:15 PM 78.8 °F - 64.4 °F 61% 30.18 in 10.0 mi SSE 12.7 mph 18.4 mph N/A   Clear
11:35 PM 78.8 °F - 64.4 °F 61% 30.18 in 10.0 mi SSE 12.7 mph - N/A   Clear
11:55 PM 78.8 °F - 64.4 °F 61% 30.18 in 10.0 mi SSE 11.5 mph - N/A   Clear